Weather History for MROC - May, 2012

Change the Weather History Date:

Thursday, May 24, 2012

  Actual Average Record
Temperature  
Mean Temperature 72 °F -  
Max Temperature 75 °F 80 °F 84 °F (1999)
Min Temperature 69 °F 65 °F 62 °F (2003)
Cooling Degree Days 7    
Growing Degree Days 22 (Base 50)    
Moisture  
Dew Point 69 °F    
Average Humidity 90    
Maximum Humidity 100    
Minimum Humidity 69    
Precipitation  
Precipitation 0.00 in 0.36 in - ()
Sea Level Pressure  
Sea Level Pressure 29.96 in    
Wind  
Wind Speed 3 mph ()    
Max Wind Speed 8 mph    
Max Gust Speed -    
Visibility 5.4 miles    
Events Fog , Rain    
Averages and records for this station are not official NWS values.
T = Trace of Precipitation, MM = Missing Value Source: Averaged Metar Reports

Daily Weather History Graph

Daily Weather History Graph

Search for Another Location

Airport or City:

Trip Planner

Search our weather history database for the weather conditions in past years. The results will help you decide how hot, cold, wet, or windy it might be!

Date:

Astronomy

May. 24, 2012 Rise Set
Actual Time 5:14 AM CST 5:52 PM CST
Civil Twilight 4:52 AM CST 6:15 PM CST
Nautical Twilight 4:25 AM CST 6:42 PM CST
Astronomical Twilight 3:58 AM CST 7:09 PM CST
Moon 8:09 AM CST (5/24) 9:01 PM CST (5/24)
Length of Visible Light 13h 23m
Length of Day
12h 38m
Waxing Crescent, 13% of the Moon is Illuminated
May 24
Waxing Crescent
May 28
First Quarter
Jun 4
Full
Jun 11
Last Quarter
Jun 19
New

Hourly Weather History & Observations

Time (CST) Temp. Dew Point Humidity Pressure Visibility Wind Dir Wind Speed Gust Speed Precip Events Conditions
12:00 AM 70 °F 70 °F 99% 29.81 in 2 mi SSW 2.3 mph - - Fog Light Fog
12:00 AM 69.8 °F 69.8 °F 100% 30.01 in 1.9 mi SSW 2.3 mph - N/A   Mostly Cloudy
1:00 AM 69.8 °F 69.8 °F 100% 29.98 in 1.9 mi SW 2.3 mph - N/A   Mostly Cloudy
1:26 AM 69.8 °F 69.8 °F 100% 29.97 in 0.3 mi SSE 2.3 mph - N/A   Unknown
2:00 AM 69.8 °F 69.8 °F 100% 29.97 in 1.2 mi ESE 2.3 mph - N/A   Mostly Cloudy
2:29 AM 69.8 °F 69.8 °F 100% 29.96 in 3.1 mi ESE 2.3 mph - N/A   Mostly Cloudy
3:00 AM 70 °F 70 °F 99% 29.81 in 2 mi WSW 2.3 mph - - Fog Light Fog
3:00 AM 69.8 °F 69.8 °F 100% 29.96 in 3.1 mi WSW 2.3 mph - N/A   Mostly Cloudy
4:00 AM 69.8 °F 69.8 °F 100% 29.97 in 3.1 mi SW 1.2 mph - N/A   Mostly Cloudy
5:00 AM 69.8 °F 69.8 °F 100% 29.98 in 6.2 mi SW 2.3 mph - N/A   Mostly Cloudy
6:00 AM 70 °F 70 °F 100% 29.85 in 2 mi WNW 3.5 mph - - Fog Light Fog
6:00 AM 69.8 °F 69.8 °F 100% 30.00 in 2.5 mi WNW 3.5 mph - N/A   Mostly Cloudy
7:00 AM 71.6 °F 71.6 °F 100% 30.00 in 6.2 mi Calm Calm - N/A   Mostly Cloudy
8:00 AM 75.2 °F 73.4 °F 94% 30.01 in 5.0 mi Calm Calm - N/A Fog Fog
8:10 AM 75.2 °F 73.4 °F 94% 30.02 in 6.2 mi WSW 6.9 mph - N/A Fog Mostly Cloudy
9:00 AM 73 °F 69 °F 84% 29.88 in 3 mi West 8.1 mph - -   Mist
9:00 AM 73.4 °F 69.8 °F 88% 30.04 in 5.0 mi West 8.1 mph - N/A Fog Mostly Cloudy
10:00 AM 75.2 °F 68.0 °F 78% 30.05 in 6.2 mi West 8.1 mph - N/A   Mostly Cloudy
11:00 AM 75.2 °F 68.0 °F 78% 30.04 in 6.2 mi WSW 8.1 mph - N/A   Mostly Cloudy
12:00 PM 71 °F 68 °F 87% 29.87 in 9 mi West 8.1 mph - -   Overcast
12:00 PM 71.6 °F 68.0 °F 88% 30.03 in 6.2 mi West 8.1 mph - N/A   Scattered Clouds
1:00 PM 71.6 °F 68.0 °F 88% 30.01 in 6.2 mi NW 6.9 mph - N/A   Scattered Clouds
2:00 PM 71.6 °F 66.2 °F 83% 29.97 in 6.2 mi WSW 5.8 mph - N/A   Mostly Cloudy
3:00 PM 75 °F 67 °F 69% 29.80 in 12 mi SW 3.5 mph - -   Overcast
3:00 PM 75.2 °F 66.2 °F 73% 29.96 in 6.2 mi SW 3.5 mph - N/A   Mostly Cloudy
4:00 PM 75.2 °F 68.0 °F 78% 29.94 in 6.2 mi SSW 5.8 mph - N/A   Mostly Cloudy
5:00 PM 73.4 °F 66.2 °F 78% 29.97 in 6.2 mi West 3.5 mph - N/A   Mostly Cloudy
6:00 PM 72 °F 67 °F 80% 29.80 in 12 mi SSW 3.5 mph - -   Overcast
6:00 PM 71.6 °F 68.0 °F 88% 29.97 in 6.2 mi SSW 3.5 mph - N/A   Mostly Cloudy
6:20 PM 71.6 °F 68.0 °F 88% 29.98 in 6.2 mi South 2.3 mph - N/A Rain Light Rain
7:00 PM 71.6 °F 68.0 °F 88% 29.99 in 6.2 mi Calm Calm - N/A   Mostly Cloudy
8:00 PM 71.6 °F 68.0 °F 88% 30.00 in 6.2 mi Calm Calm - N/A   Mostly Cloudy
9:00 PM 71 °F 68 °F 88% 29.86 in 12 mi East 2.3 mph - -   Partly Cloudy
9:00 PM 71.6 °F 68.0 °F 88% 30.02 in 6.2 mi East 2.3 mph - N/A   Scattered Clouds
10:00 PM 71.6 °F 68.0 °F 88% 30.04 in 6.2 mi ESE 2.3 mph - N/A   Scattered Clouds
11:00 PM 71.6 °F 68.0 °F 88% 30.03 in 6.2 mi Calm Calm - N/A   Scattered Clouds